GOES 1 (SMS-C) 1 08366U 75100A 25021.22016043 -.00000196 00000-0 00000-0 0 9991 2 08366 5.9122 283.8038 0004873 339.7085 213.9600 1.00289123179939 GOES 2 1 10061U 77048A 25021.17210767 -.00000235 00000-0 00000+0 0 9995 2 10061 7.6375 297.6954 0012933 36.3348 165.8943 0.99399228118428 GOES 3 1 10953U 78062A 25021.90512976 .00000130 00000-0 00000-0 0 9994 2 10953 8.0591 303.0384 0001793 322.1701 233.0551 0.99358663123453 GOES 4 1 11964U 80074A 25021.90148078 .00000048 00000-0 00000-0 0 9999 2 11964 9.0985 306.8404 0031044 94.7630 76.0241 0.99230150122363 GOES 5 1 12472U 81049A 25021.48591028 -.00000142 00000-0 00000-0 0 9993 2 12472 10.2773 319.0930 0003738 307.2100 293.7088 1.00337676117714 GOES 6 1 14050U 83041A 25021.30659872 -.00000200 00000-0 00000-0 0 9999 2 14050 11.0097 324.6141 0002504 252.2740 288.9188 1.00312946210883 GOES 7 1 17561U 87022A 25021.47688458 .00000116 00000-0 00000-0 0 9997 2 17561 13.3930 341.2605 0002091 18.9670 345.4507 0.99891970121852 GOES 8 1 23051U 94022A 25019.68413709 -.00000093 00000-0 00000-0 0 9996 2 23051 13.9878 17.4883 0002450 12.6269 355.1975 0.98906225119059 GOES 9 1 23581U 95025A 25021.44995161 -.00000054 00000-0 00000-0 0 9999 2 23581 13.5041 18.1783 0005203 185.8623 356.2015 0.98798424107704 GOES 10 1 24786U 97019A 25021.31919640 -.00000243 00000-0 00000-0 0 9996 2 24786 12.5194 24.6703 0030938 226.5839 322.9802 0.99127601100991 GOES 11 1 26352U 00022A 25021.50882993 -.00000100 00000-0 00000-0 0 9998 2 26352 10.7128 51.2695 0005814 229.0122 309.6163 0.99040872 47405 GOES 12 1 26871U 01031A 25021.54596182 -.00000248 00000-0 00000-0 0 9994 2 26871 11.2475 41.4437 0007706 283.6015 155.0752 0.99140876 85691 GOES 13 1 29155U 06018A 25021.66933291 .00000071 00000-0 00000-0 0 9994 2 29155 3.1975 82.6899 0065563 259.1494 264.3687 0.98829376 38199 GOES 14 1 35491U 09033A 25021.59285542 -.00000051 00000-0 00000-0 0 9994 2 35491 0.3537 90.5292 0001758 153.1667 342.8408 1.00275507 1466 GOES 15 1 36411U 10008A 25021.89632544 .00000056 00000-0 00000-0 0 9996 2 36411 0.0447 252.1080 0005596 17.6328 235.9256 1.00274981 54511 GOES 16 1 41866U 16071A 25021.88019506 -.00000228 00000-0 00000-0 0 9990 2 41866 0.0406 244.1255 0001812 94.9775 24.0409 1.00271701 29978